When you browse on this site, cookies collect data to enhance your experience and personalize the content and advertising you see.
Visit our Privacy Policy to learn more. By continuing to use the site, you agree to this use of cookies and data.
  • In Switzerland
  • List of Countries
  • For 7 days
  • Water Temperature
  • Weather Map
  • Weather Widgets
  • user-avatar
    Login

    Hourly Weather Encamp

    Today, 6 June, Saturday

    Time Temperature Precipitation Wind Pressure Humidity
    00:00 +7°C° 0 mm 0 mps 620 mmHg 94%
    01:00 +7°C° 0 mm 0 mps 620 mmHg 94%
    02:00 +7°C° 0 mm 0 mps 620 mmHg 94%
    03:00 +6°C° 0 mm 0 mps 620 mmHg 94%
    04:00 +8°C° 0 mm 0 mps 620 mmHg 91%
    05:00 +9°C° 0 mm 0 mps 620 mmHg 89%
    06:00 +10°C° 0 mm 0 mps 621 mmHg 86%
    07:00 +12°C° 0 mm 1 mps 621 mmHg 79%
    08:00 +14°C° 0 mm 1 mps 622 mmHg 71%
    09:00 +16°C° 0 mm 2 mps 623 mmHg 64%
    10:00 +16°C° 0.3 mm 2 mps 622 mmHg 67%
    11:00 +16°C° 0.3 mm 2 mps 622 mmHg 69%
    12:00 +16°C° 0.3 mm 2 mps 622 mmHg 72%
    13:00 +15°C° 0.9 mm 2 mps 622 mmHg 76%
    14:00 +15°C° 0.9 mm 2 mps 621 mmHg 80%
    15:00 +14°C° 0.9 mm 2 mps 620 mmHg 84%
    16:00 +14°C° 0.9 mm 2 mps 620 mmHg 86%
    17:00 +13°C° 0.9 mm 1 mps 619 mmHg 87%
    18:00 +13°C° 0.9 mm 1 mps 619 mmHg 88%
    19:00 +11°C° 0.7 mm 1 mps 619 mmHg 91%
    20:00 +10°C° 0.7 mm 1 mps 619 mmHg 93%
    21:00 +8°C° 0.7 mm 0 mps 618 mmHg 96%
    22:00 +9°C° 1.4 mm 1 mps 618 mmHg 97%
    23:00 +9°C° 1.4 mm 1 mps 618 mmHg 97%

    Tomorrow, 7 June, Sunday

    Time Temperature Precipitation Wind Pressure Humidity
    00:00 +9°C° 1.4 mm 1 mps 618 mmHg 98%
    01:00 +9°C° 0.6 mm 1 mps 618 mmHg 97%
    02:00 +8°C° 0.6 mm 1 mps 618 mmHg 97%
    03:00 +8°C° 0.6 mm 1 mps 617 mmHg 96%
    04:00 +8°C° 0.5 mm 1 mps 618 mmHg 96%
    05:00 +9°C° 0.5 mm 1 mps 618 mmHg 95%
    06:00 +9°C° 0.5 mm 1 mps 618 mmHg 94%
    07:00 +9°C° 0.8 mm 1 mps 619 mmHg 93%
    08:00 +10°C° 0.8 mm 1 mps 619 mmHg 92%
    09:00 +10°C° 0.8 mm 1 mps 620 mmHg 91%
    10:00 +9°C° 2 mm 1 mps 619 mmHg 92%
    11:00 +8°C° 2 mm 1 mps 619 mmHg 94%
    12:00 +7°C° 2 mm 1 mps 619 mmHg 95%
    13:00 +7°C° 0.4 mm 1 mps 619 mmHg 94%
    14:00 +8°C° 0.4 mm 1 mps 619 mmHg 92%
    15:00 +8°C° 0.4 mm 1 mps 619 mmHg 91%
    16:00 +8°C° 0.5 mm 1 mps 619 mmHg 92%
    17:00 +7°C° 0.5 mm 1 mps 619 mmHg 92%
    18:00 +7°C° 0.5 mm 1 mps 619 mmHg 93%
    19:00 +6°C° 1.6 mm 1 mps 619 mmHg 94%
    20:00 +6°C° 1.6 mm 1 mps 619 mmHg 95%
    21:00 +5°C° 1.6 mm 1 mps 619 mmHg 95%
    22:00 +5°C° 0.9 mm 1 mps 619 mmHg 95%
    23:00 +5°C° 0.9 mm 1 mps 619 mmHg 95%

    Day after tomorrow, 8 June, Monday

    Time Temperature Precipitation Wind Pressure Humidity
    00:00 +4°C° 0.9 mm 1 mps 619 mmHg 94%
    01:00 +4°C° 0.3 mm 1 mps 619 mmHg 95%
    02:00 +4°C° 0.3 mm 1 mps 619 mmHg 96%
    03:00 +4°C° 0.3 mm 1 mps 619 mmHg 96%
    04:00 +5°C° 0 mm 1 mps 619 mmHg 96%
    05:00 +5°C° 0 mm 1 mps 619 mmHg 96%
    06:00 +5°C° 0 mm 1 mps 619 mmHg 95%
    07:00 +5°C° 0.1 mm 1 mps 619 mmHg 94%
    08:00 +6°C° 0.1 mm 1 mps 620 mmHg 92%
    09:00 +6°C° 0.1 mm 1 mps 620 mmHg 91%
    10:00 +7°C° 0.2 mm 1 mps 620 mmHg 87%
    11:00 +8°C° 0.2 mm 1 mps 621 mmHg 84%
    12:00 +9°C° 0.2 mm 1 mps 621 mmHg 81%
    13:00 +8°C° 0.6 mm 2 mps 620 mmHg 82%
    14:00 +7°C° 0.6 mm 2 mps 620 mmHg 84%
    15:00 +7°C° 0.6 mm 2 mps 620 mmHg 86%
    16:00 +6°C° 1 mm 2 mps 620 mmHg 88%
    17:00 +6°C° 1 mm 2 mps 619 mmHg 90%
    18:00 +6°C° 1 mm 1 mps 619 mmHg 92%
    19:00 +4°C° 0.3 mm 2 mps 619 mmHg 93%
    20:00 +3°C° 0.3 mm 2 mps 619 mmHg 94%
    21:00 +2°C° 0.3 mm 2 mps 620 mmHg 95%
    22:00 +2°C° 0 mm 2 mps 620 mmHg 94%
    23:00 +2°C° 0 mm 2 mps 620 mmHg 94%

    9 June, Tuesday

    Time Temperature Precipitation Wind Pressure Humidity
    00:00 +2°C° 0 mm 2 mps 619 mmHg 94%
    01:00 +1°C° 0 mm 2 mps 619 mmHg 93%
    02:00 +1°C° 0 mm 2 mps 619 mmHg 93%
    03:00 +1°C° 0 mm 2 mps 619 mmHg 92%
    04:00 +2°C° 0 mm 2 mps 620 mmHg 92%
    05:00 +3°C° 0 mm 2 mps 620 mmHg 91%
    06:00 +4°C° 0 mm 2 mps 621 mmHg 90%
    07:00 +6°C° 0.1 mm 2 mps 621 mmHg 84%
    08:00 +7°C° 0.1 mm 2 mps 622 mmHg 78%
    09:00 +9°C° 0.1 mm 2 mps 623 mmHg 72%
    10:00 +9°C° 0.3 mm 2 mps 623 mmHg 71%
    11:00 +9°C° 0.3 mm 2 mps 623 mmHg 71%
    12:00 +10°C° 0.3 mm 2 mps 623 mmHg 70%
    13:00 +10°C° 0.7 mm 2 mps 623 mmHg 72%
    14:00 +10°C° 0.7 mm 2 mps 623 mmHg 74%
    15:00 +10°C° 0.7 mm 2 mps 622 mmHg 76%
    16:00 +9°C° 0.6 mm 2 mps 622 mmHg 79%
    17:00 +9°C° 0.6 mm 2 mps 622 mmHg 81%
    18:00 +8°C° 0.6 mm 2 mps 622 mmHg 83%
    19:00 +6°C° 0 mm 2 mps 622 mmHg 86%
    20:00 +5°C° 0 mm 2 mps 622 mmHg 88%
    21:00 +4°C° 0 mm 2 mps 622 mmHg 91%
    22:00 +3°C° 0 mm 2 mps 622 mmHg 91%
    23:00 +3°C° 0 mm 2 mps 622 mmHg 92%

    10 June, Wednesday

    Time Temperature Precipitation Wind Pressure Humidity
    00:00 +3°C° 0 mm 2 mps 622 mmHg 92%
    01:00 +3°C° 0 mm 2 mps 622 mmHg 93%
    02:00 +3°C° 0 mm 2 mps 622 mmHg 94%
    03:00 +3°C° 0 mm 2 mps 622 mmHg 94%
    04:00 +4°C° 0 mm 2 mps 622 mmHg 93%
    05:00 +5°C° 0 mm 2 mps 623 mmHg 92%
    06:00 +5°C° 0 mm 2 mps 623 mmHg 90%
    07:00 +7°C° 0 mm 2 mps 624 mmHg 82%
    08:00 +9°C° 0 mm 2 mps 624 mmHg 73%
    09:00 +12°C° 0 mm 2 mps 625 mmHg 64%
    10:00 +12°C° 0.1 mm 2 mps 625 mmHg 63%
    11:00 +13°C° 0.1 mm 2 mps 625 mmHg 62%
    12:00 +13°C° 0.1 mm 2 mps 625 mmHg 61%
    13:00 +13°C° 0.5 mm 2 mps 625 mmHg 67%
    14:00 +12°C° 0.5 mm 2 mps 625 mmHg 73%
    15:00 +10°C° 0.5 mm 2 mps 624 mmHg 79%
    16:00 +10°C° 0.5 mm 2 mps 624 mmHg 82%
    17:00 +9°C° 0.5 mm 2 mps 624 mmHg 85%
    18:00 +9°C° 0.5 mm 2 mps 624 mmHg 88%
    19:00 +7°C° 0.1 mm 2 mps 623 mmHg 90%
    20:00 +6°C° 0.1 mm 2 mps 623 mmHg 92%
    21:00 +5°C° 0.1 mm 2 mps 623 mmHg 95%
    22:00 +5°C° 0 mm 2 mps 623 mmHg 94%
    23:00 +5°C° 0 mm 2 mps 623 mmHg 94%

    11 June, Thursday

    Time Temperature Precipitation Wind Pressure Humidity
    00:00 +4°C° 0 mm 2 mps 623 mmHg 93%
    01:00 +4°C° 0 mm 2 mps 623 mmHg 93%
    02:00 +4°C° 0 mm 2 mps 622 mmHg 93%
    03:00 +4°C° 0 mm 2 mps 622 mmHg 93%
    04:00 +5°C° 0 mm 2 mps 623 mmHg 93%
    05:00 +6°C° 0 mm 2 mps 623 mmHg 92%
    06:00 +6°C° 0 mm 2 mps 623 mmHg 91%
    07:00 +7°C° 0.2 mm 2 mps 623 mmHg 87%
    08:00 +8°C° 0.2 mm 2 mps 624 mmHg 83%
    09:00 +10°C° 0.2 mm 1 mps 624 mmHg 79%
    10:00 +9°C° 0.4 mm 2 mps 624 mmHg 79%
    11:00 +10°C° 0.4 mm 2 mps 624 mmHg 80%
    12:00 +10°C° 0.4 mm 2 mps 624 mmHg 80%
    13:00 +10°C° 0.2 mm 2 mps 623 mmHg 79%
    14:00 +11°C° 0.2 mm 1 mps 623 mmHg 78%
    15:00 +11°C° 0.2 mm 1 mps 623 mmHg 77%
    16:00 +11°C° 0.1 mm 1 mps 623 mmHg 77%
    17:00 +11°C° 0.1 mm 1 mps 622 mmHg 78%
    18:00 +12°C° 0.1 mm 1 mps 622 mmHg 78%
    19:00 +10°C° 0 mm 1 mps 622 mmHg 83%
    20:00 +9°C° 0 mm 1 mps 622 mmHg 88%
    21:00 +7°C° 0 mm 2 mps 621 mmHg 93%
    22:00 +6°C° 0 mm 2 mps 621 mmHg 93%
    23:00 +6°C° 0 mm 2 mps 620 mmHg 93%
    Show more